カタログに戻る

CZ-6A DEB

運用中SSO
NORAD 54427·DEBRIS·🇨🇳 China

打ち上げ Nov 11, 2022 から Taiyuan Satellite Launch Center

Loading…

次のパス (今後24時間)

TLE

最新Source: Space-Track

元期: Sep 14, 2026, 08:53 UTC

1 54427U 22151FB  26257.37062380  .00000596  00000-0  49805-3 0  9993
2 54427  99.0536 222.9612 0173334 279.4468  78.7134 13.85584697193651

AllMySatでCZ-6A DEBをリアルタイム追跡

Download on the App Store